This is the latest recevied weather packets stored in our database for station/object W0AKO. If no packets are shown the sender has not sent any weather packets the latest 10 day(s).
| Time | Temp. | Humidity | Pressure | Rain* | Wind** | Luminosity | Snow |
|---|---|---|---|---|---|---|---|
| 1778000253 | 18.89° C | 10% | 1012.9 hPa | 0 mm | - | 652 W/m² | - |
| 1777999949 | 18.33° C | 10% | 1012.9 hPa | 0 mm | - | 642 W/m² | - |
| 1777999644 | 18.89° C | 10% | 1012.8 hPa | 0 mm | - | 598 W/m² | - |
| 1777999342 | 18.33° C | 10% | 1012.7 hPa | 0 mm | - | 580 W/m² | - |
| 1777999040 | 18.33° C | 10% | 1012.9 hPa | 0 mm | - | 572 W/m² | - |
| 1777998738 | 17.78° C | 10% | 1012.8 hPa | 0 mm | - | 557 W/m² | - |
| 1777998435 | 17.78° C | 10% | 1013 hPa | 0 mm | - | 517 W/m² | - |
| 1777998132 | 17.78° C | 10% | 1012.8 hPa | 0 mm | - | 476 W/m² | - |
| 1777997829 | 17.78° C | 10% | 1012.9 hPa | 0 mm | - | 435 W/m² | - |
| 1777997527 | 17.78° C | 10% | 1013 hPa | 0 mm | - | 423 W/m² | - |
| 1777997224 | 18.89° C | 10% | 1013.1 hPa | 0 mm | - | 390 W/m² | - |
| 1777996922 | 18.33° C | 10% | 1013.1 hPa | 0 mm | - | 370 W/m² | - |
| 1777996617 | 17.78° C | 10% | 1013 hPa | 0 mm | - | 355 W/m² | - |
| 1777996314 | 17.22° C | 10% | 1012.9 hPa | 0 mm | - | 342 W/m² | - |
| 1777996010 | 17.22° C | 10% | 1013 hPa | 0 mm | - | 326 W/m² | - |
| 1777995706 | 17.78° C | 10% | 1013.1 hPa | 0 mm | - | 308 W/m² | - |
| 1777995404 | 17.22° C | 10% | 1013.3 hPa | 0 mm | - | 297 W/m² | - |
| 1777995100 | 16.67° C | 10% | 1013.3 hPa | 0 mm | - | 275 W/m² | - |
| 1777994797 | 16.67° C | 10% | 1013.2 hPa | 0 mm | - | 263 W/m² | - |
| 1777994493 | 17.22° C | 10% | 1013.1 hPa | 0 mm | - | 252 W/m² | - |
| 1777994188 | 16.67° C | 10% | 1013.4 hPa | 0 mm | - | 246 W/m² | - |
| 1777993886 | 16.67° C | 10% | 1013.2 hPa | 0 mm | - | 254 W/m² | - |
| 1777993582 | 16.67° C | 10% | 1013.4 hPa | 0 mm | - | 265 W/m² | - |
| 1777993279 | 16.67° C | 10% | 1013.3 hPa | 0 mm | - | 258 W/m² | - |
| 1777992975 | 16.67° C | 10% | 1013.1 hPa | 0 mm | - | 239 W/m² | - |
* Rain latest hour (hover to see other rain measurements)
** Current wind speed in m/s (hover to see current wind gust speed)